RH
10 9 9 9 8 8 8 8 8 7 7 6 5 5 4 4 3 3 2 3 2 2 2 2 2 3 5 5 17 21 24 5 6 21 21 14 40 31 26 24 22 24 24 16 18
15 12 10 10 9 9 8 8 8 7 7 6 6 5 4 3 3 3 4 2 2 2 2 2 3 6 8 9 49 94 33 4 19 27 19 11 26 40 27 25 22 20 25 22 22
22 14 10 10 9 9 9 9 8 8 7 7 6 4 4 3 4 5 3 3 4 4 5 4 4 8 12 18 34 84 33 20 29 27 31 35 16 45 33 27 25 22 26 24 23
24 15 12 11 10 9 9 9 8 8 8 6 5 5 4 4 4 4 5 6 9 12 11 11 8 13 19 37 50 79 33 30 38 33 34 59 52 46 38 34 32 28 24 26 24
27 20 16 13 12 10 10 10 9 10 8 7 6 5 4 3 4 8 9 14 18 19 16 15 15 38 55 81 97 100 50 78 67 44 37 58 57 52 44 38 36 32 27 25 24
29 26 22 18 13 11 10 10 10 10 8 7 6 4 3 4 8 11 27 37 34 36 40 40 29 26 89 90 91 73 88 95 85 74 38 52 57 61 49 42 36 38 36 34 31
31 29 28 22 17 12 11 11 11 10 8 7 5 3 4 8 20 42 40 38 36 37 36 49 59 42 52 35 32 78 86 84 85 75 58 55 56 54 55 48 42 38 39 41 37
32 33 30 25 19 15 11 12 12 9 7 6 4 4 13 39 50 41 43 34 40 46 70 99 100 82 64 51 56 96 93 92 79 81 57 58 61 57 56 49 39 40 37 39 38
36 37 32 28 24 20 14 12 11 9 8 4 6 16 38 52 52 48 64 46 50 72 78 85 92 98 96 80 78 93 95 82 89 72 61 56 60 58 54 54 47 42 32 37 36
40 40 37 35 28 21 16 12 12 10 5 6 21 32 42 38 40 47 68 82 77 84 82 93 100 98 86 86 97 83 96 80 73 68 59 54 56 48 47 59 57 52 46 38 36
45 44 40 34 24 23 14 14 14 9 5 22 44 35 41 38 48 70 93 79 87 82 95 96 90 87 78 71 63 91 97 82 49 50 59 56 53 42 53 62 56 56 52 40 38
49 47 41 34 23 17 12 11 5 6 9 55 50 30 49 64 67 74 74 87 80 72 84 99 95 84 90 90 81 67 92 87 63 56 54 51 57 51 58 67 62 55 61 47 38
52 49 42 28 23 15 12 8 4 5 27 59 61 56 52 75 76 68 88 86 85 82 90 100 81 94 99 98 96 94 78 97 78 67 50 50 49 53 52 69 90 81 64 55 44
56 48 42 35 22 15 9 5 4 14 56 52 46 60 60 57 61 90 90 92 98 99 94 98 95 86 81 91 91 90 69 77 95 95 89 76 77 60 60 61 76 84 74 61 59
60 48 38 26 18 11 8 5 7 33 80 44 43 59 70 65 79 84 92 76 92 98 96 75 91 96 91 78 81 80 67 70 65 85 96 97 63 61 60 68 63 66 65 68 64
66 50 42 23 15 11 6 5 19 32 74 33 52 68 53 56 76 70 79 72 72 76 80 96 98 95 97 92 95 82 78 71 89 85 92 75 58 56 73 68 73 69 66 63 63
70 52 39 25 16 9 6 7 24 31 34 52 61 74 86 67 69 77 81 73 96 90 96 91 78 94 96 93 94 79 88 96 95 96 95 75 65 74 70 65 68 65 71 71 71
69 56 40 23 14 8 6 8 27 66 38 55 73 60 73 75 70 78 76 69 86 86 96 96 83 71 94 90 96 97 88 75 94 95 92 76 72 68 76 73 74 74 78 77 75
71 59 37 23 12 9 8 11 53 67 75 69 58 75 70 61 85 77 77 76 91 97 100 96 88 76 72 94 85 80 71 72 82 87 75 74 78 72 76 79 75 80 80 78 75
67 56 39 23 12 10 11 26 52 53 57 82 78 85 93 75 81 89 78 86 79 97 97 99 97 94 82 79 86 80 86 68 67 93 97 89 86 80 77 74 69 66 77 88 81
67 55 38 20 14 12 12 21 32 50 61 73 85 90 87 93 92 99 88 84 74 79 96 97 100 92 92 92 84 85 83 75 73 67 96 95 94 84 76 67 75 74 82 98 90
72 47 37 19 14 13 17 19 34 50 66 74 82 93 84 80 99 93 91 83 77 85 95 96 94 97 93 97 96 85 79 71 74 88 71 85 80 70 62 57 64 74 74 74 89
66 52 31 19 16 17 19 31 41 51 59 63 75 83 77 79 93 86 72 74 67 73 86 96 95 95 87 82 90 96 100 89 79 66 87 87 83 83 65 62 72 79 78 76 80
70 56 34 23 18 20 20 32 46 54 58 66 70 75 63 63 81 78 74 60 58 67 80 99 99 96 96 94 99 100 98 91 88 80 82 74 86 87 81 82 84 84 83 81 85
71 55 38 25 21 22 24 32 45 53 60 64 68 78 80 90 80 79 67 45 62 64 70 86 100 98 90 87 92 94 94 93 87 88 82 77 76 79 82 88 78 72 74 80 84
88 62 43 32 26 23 27 29 40 52 60 66 69 72 69 86 99 82 78 76 62 58 71 85 95 94 87 83 83 84 87 96 96 87 77 72 74 75 72 71 74 84 86 72 64
94 77 45 36 32 27 26 26 31 40 57 60 63 65 66 78 76 70 68 72 74 76 74 78 78 87 92 84 86 87 81 97 99 95 84 80 76 78 77 76 76 74 72 69 67
Wind_Speed
19 20 21 23 23 24 25 26 27 26 26 26 27 29 30 31 31 33 35 34 27 26 25 25 29 28 27 31 30 27 35 48 51 40 38 22 21 11 22 23 27 26 25 20 21
21 20 20 22 24 25 27 28 28 28 29 30 31 33 34 37 39 40 30 32 31 28 28 27 32 31 33 34 31 34 43 51 46 28 34 25 28 16 23 27 27 29 26 27 21
21 22 21 21 23 25 27 29 29 30 31 32 35 36 38 40 44 35 37 35 29 29 31 30 31 34 41 37 39 40 50 48 23 18 20 23 34 24 27 31 29 28 26 29 26
21 21 22 24 23 26 27 30 32 33 34 36 38 41 43 44 35 42 43 38 28 31 34 31 31 33 40 42 39 42 49 47 43 29 26 27 31 23 26 31 29 30 29 27 27
22 21 23 25 25 26 29 31 34 36 38 39 42 43 46 44 42 34 32 35 29 23 25 28 32 28 33 39 35 39 47 40 37 33 31 23 20 25 24 31 27 26 30 26 27
24 24 24 26 26 27 30 33 35 37 41 41 43 45 44 42 36 32 28 20 22 23 20 21 25 29 32 32 33 36 38 43 32 25 29 27 28 22 31 24 32 23 23 24 24
26 27 28 29 29 30 32 35 36 40 41 43 44 45 40 31 25 21 22 23 22 24 26 22 20 23 28 37 40 34 42 38 36 29 31 22 26 31 24 26 31 25 22 23 24
25 28 29 30 32 33 34 37 40 41 43 42 45 42 26 18 17 22 25 26 26 27 24 22 19 18 25 27 33 24 33 40 38 33 33 27 30 29 26 24 27 26 26 28 25
28 30 31 33 36 37 37 38 42 42 38 42 39 29 15 15 23 23 25 29 22 18 20 23 25 26 19 24 25 28 25 34 36 29 30 31 25 24 25 23 27 27 29 28 28
29 32 34 35 37 39 39 41 44 43 43 40 23 19 16 19 25 24 25 27 27 24 21 17 21 26 21 22 20 21 25 18 32 32 25 31 25 24 26 25 24 25 26 31 28
30 32 34 36 38 41 42 46 48 47 40 28 21 21 22 23 23 24 31 30 27 21 20 16 12 22 21 19 25 17 20 18 20 32 26 31 32 30 16 27 30 26 28 28 27
31 32 34 36 38 42 43 45 46 44 39 18 20 30 25 31 31 25 30 28 30 23 18 17 19 20 12 14 17 21 22 15 23 23 30 31 35 27 17 26 29 28 25 22 25
33 33 34 36 35 38 42 44 42 37 22 14 22 24 28 24 18 33 25 31 32 24 12 13 14 10 9 12 13 18 26 14 15 9 29 27 33 30 22 25 26 27 24 22 20
33 35 38 36 36 38 39 41 40 29 4 14 19 16 25 25 18 22 31 30 21 16 13 7 10 14 16 11 13 16 19 19 13 13 14 24 11 29 26 27 26 26 26 25 23
34 33 35 38 38 39 41 41 35 22 5 16 21 19 12 24 20 25 31 26 16 12 8 9 15 7 9 13 14 14 13 17 20 12 11 23 7 31 28 30 32 29 29 29 30
35 34 33 32 35 37 39 37 22 8 3 12 16 19 20 25 21 22 27 24 18 15 5 9 10 10 16 10 15 9 7 13 6 19 6 20 7 9 26 32 30 31 31 33 34
33 32 33 33 33 34 35 32 7 8 18 15 18 18 19 26 23 27 23 35 34 19 13 6 7 10 19 12 16 10 13 4 3 2 2 16 10 5 11 27 32 29 29 28 31
30 29 30 31 31 32 33 24 10 9 15 17 17 15 16 25 20 24 23 35 28 24 12 13 7 7 10 11 6 13 3 6 2 2 3 14 4 5 10 10 24 27 23 25 31
28 28 27 28 29 29 28 15 6 11 14 18 12 15 20 22 16 19 26 22 30 23 14 11 10 7 4 7 4 4 3 7 5 5 4 6 3 7 11 13 13 23 24 22 20
25 26 26 23 26 24 22 11 4 10 11 10 12 12 16 25 17 19 24 16 28 23 11 11 5 10 1 2 4 2 5 2 2 3 1 1 4 3 10 11 13 16 20 23 21
25 24 22 22 22 21 19 11 6 8 9 8 8 12 14 21 15 13 20 11 24 25 12 10 7 6 4 3 2 2 3 4 3 3 1 2 1 2 3 6 10 13 16 20 19
22 20 21 21 17 21 17 13 9 7 7 8 6 10 12 15 12 11 16 20 22 22 17 13 7 5 4 5 4 4 4 2 2 4 4 3 2 3 7 9 8 14 15 16 22
20 18 16 20 16 17 14 11 8 7 6 8 5 9 12 10 8 10 15 14 18 17 18 11 8 6 5 2 4 5 7 6 4 5 8 2 1 4 2 6 8 10 11 9 16
17 14 16 11 16 14 12 9 7 8 6 9 8 10 12 8 10 10 17 16 14 13 13 5 5 3 2 5 5 4 4 4 3 2 4 3 7 8 7 7 8 9 10 10 12
15 14 14 13 13 12 10 7 6 7 7 7 7 11 14 13 15 7 21 16 9 12 11 6 6 4 3 4 2 2 3 4 3 4 2 9 12 13 13 13 12 11 10 10 10
15 14 14 14 11 10 7 6 5 7 7 8 8 11 13 11 11 21 21 18 9 9 9 6 3 4 2 4 2 1 1 5 5 9 10 9 10 11 10 11 9 8 6 6 6
15 12 13 11 10 9 7 5 6 6 7 11 12 16 13 16 18 18 14 11 9 11 10 5 6 4 1 2 2 0 3 4 6 8 11 10 7 8 5 2 2 2 3 6 8
Wind_Direction
349 348 345 341 341 341 340 336 333 332 329 327 327 327 327 323 322 322 320 309 302 295 283 266 263 253 251 245 240 235 234 245 247 243 237 216 223 235 229 222 216 227 235 239 231
347 342 340 341 342 341 338 336 335 333 330 329 329 328 327 325 325 321 312 308 302 294 282 258 246 248 246 246 231 227 231 243 242 250 248 234 231 240 224 218 221 222 228 239 235
345 340 339 341 340 338 336 335 335 332 330 330 329 328 328 327 323 318 311 304 300 292 278 267 252 246 242 234 230 230 237 241 237 235 226 222 233 242 217 222 225 222 225 232 238
344 342 338 338 339 338 336 334 334 333 332 332 330 330 327 324 320 309 308 304 300 282 274 264 254 246 238 229 231 231 241 241 244 241 213 226 232 233 217 211 229 225 227 233 244
344 346 341 336 338 338 336 336 335 335 333 332 330 327 323 320 315 306 302 303 302 290 281 274 251 250 237 233 232 236 242 245 249 239 211 221 229 243 218 208 221 223 225 229 231
344 344 342 336 337 338 336 336 336 335 331 331 328 324 322 318 315 308 303 297 304 298 293 282 272 252 248 241 239 242 246 243 243 232 219 244 236 239 226 219 219 210 221 227 231
345 342 343 338 337 338 338 335 335 334 332 330 325 325 323 320 307 301 306 317 303 300 298 287 277 255 251 252 247 247 238 241 235 232 228 238 246 235 226 235 235 226 220 224 232
345 340 343 340 336 337 338 336 334 337 332 330 328 327 328 320 313 321 322 317 308 301 297 285 284 267 253 254 240 244 237 236 231 223 218 231 234 227 226 234 233 230 223 231 236
344 343 345 340 336 335 336 337 337 336 336 334 329 340 343 342 326 326 318 316 317 308 300 274 262 264 267 255 260 241 242 231 234 225 214 222 233 222 215 227 232 231 228 230 228
344 345 343 340 336 334 337 338 336 336 342 339 345 354 348 328 326 328 323 327 323 319 310 315 264 260 258 240 240 240 235 229 231 208 213 218 226 229 219 221 219 223 221 224 223
345 344 342 341 338 335 338 338 337 343 348 351 5 5 345 334 338 344 337 329 329 319 309 309 260 245 262 249 243 245 249 231 242 208 212 205 211 216 218 211 220 219 214 222 219
345 342 342 340 340 337 340 342 343 340 348 358 357 357 351 345 337 349 335 333 333 329 323 287 273 289 244 254 245 249 247 247 218 215 209 206 219 222 201 197 210 216 210 212 212
343 341 342 339 341 337 341 341 343 339 342 12 358 347 350 336 353 347 339 330 327 325 328 294 275 303 280 247 241 251 242 258 227 226 207 218 219 214 212 203 200 206 211 217 218
342 342 340 341 338 342 339 343 343 342 358 11 355 345 351 351 347 344 338 343 345 334 331 325 317 271 244 252 238 245 231 248 241 246 203 191 202 199 209 209 213 213 208 217 218
341 341 340 340 340 340 342 347 346 348 44 352 349 348 356 17 347 355 3 2 358 342 326 348 354 343 259 253 219 253 250 235 240 227 189 185 162 202 207 205 210 217 218 220 226
338 338 338 338 339 340 343 347 347 359 345 352 353 7 357 9 5 6 15 14 20 12 0 7 355 343 305 225 187 191 206 215 225 240 180 178 157 160 194 206 204 209 216 221 227
336 335 335 336 337 342 345 350 357 54 329 345 353 8 1 353 12 11 14 24 24 6 19 358 5 7 33 117 186 195 153 49 57 96 200 160 180 117 202 212 219 221 214 220 227
331 333 333 334 337 345 349 359 47 338 344 349 350 10 5 4 13 11 11 18 22 19 10 3 359 20 50 57 81 161 59 118 100 99 36 153 157 176 182 205 215 222 230 234 229
327 331 331 332 338 344 350 11 25 344 339 344 0 2 360 10 8 8 6 11 14 18 0 353 6 19 357 60 96 137 65 65 105 78 82 166 144 190 199 202 200 219 231 232 229
325 328 332 333 340 351 355 28 329 328 341 358 7 1 349 0 9 11 8 359 8 14 8 348 308 6 29 182 56 114 145 144 50 93 113 149 112 178 200 210 215 221 221 221 227
324 328 333 336 341 349 12 15 359 340 345 350 359 352 354 347 2 5 350 4 2 11 16 13 19 12 63 40 177 125 117 70 69 48 70 141 20 102 242 201 212 213 217 214 216
321 328 328 333 345 357 9 16 11 5 357 360 341 344 350 350 339 354 340 351 351 360 7 12 11 354 15 65 94 245 218 195 41 4 51 91 133 324 247 238 211 211 217 217 211
314 321 325 334 349 1 8 17 9 12 11 357 337 340 351 355 337 321 338 351 340 1 2 7 359 333 335 36 42 43 131 154 63 22 36 82 256 15 91 202 190 193 199 199 199
310 319 323 331 349 357 8 15 14 5 0 357 335 333 339 1 342 302 330 348 342 5 357 358 356 46 4 324 339 345 106 139 121 112 114 55 111 78 101 117 138 151 161 166 172
304 313 321 324 342 350 0 10 8 7 349 351 337 332 341 335 343 323 329 345 356 358 354 9 14 27 13 1 331 346 216 172 164 103 138 146 113 97 103 109 109 110 121 136 152
294 303 312 322 336 340 342 353 359 354 347 344 350 348 341 330 316 317 324 335 340 350 358 1 337 1 24 20 358 7 137 171 149 116 122 138 139 118 114 111 114 113 127 147 167
283 288 300 310 321 323 323 330 339 345 334 336 339 346 347 335 323 316 311 320 318 342 355 350 356 10 63 337 307 21 35 177 178 144 158 175 172 166 165 187 191 205 227 236 237